Location: Amherst
(42.5000°N, 72.5000°W)
Time: 02:05:53
(UTC-04:00)

ISS - Pass Details

Date: 18 May 2018
Orbit: 402 x 407 km, 51.6° (Epoch: 24 May)

Event Time Altitude Azimuth Distance (km) Brightness Sun altitude
Exits shadow 01:58:54 12° 321° (NW) 1,347 -0.8 -25.7°
Maximum altitude 02:00:39 17° 356° (N) 1,130 -0.8 -25.6°
Drops below altitude 10° 02:02:50 10° 38° (NE) 1,458 -0.1 -25.5°
Sets 02:05:28 0° 61° (ENE) 2,317 0.7 -25.3°
